K4DNM Weather Reports


Display with metric or nautical units.
time (UTC)temp
F
wind
direction
speed
MPH
gust
MPH
rain 1hr
in
rain 24hr
in
rain mn
in
humidity
%
barometer
mb
20260905024447 73 186 4.0 12.0 0.63 0.67 0.67 92 1013.8
20260905024403 73 100 5.0 15.0 0.63 0.67 0.67 92 1013.8
20260905023946 73 243 6.0 15.0 0.61 0.65 0.65 91 1013.6
20260905023904 73 228 7.0 15.0 0.61 0.65 0.65 91 1013.6
20260905023443 73 127 6.0 15.0 0.53 0.56 0.56 90 1013.8
20260905023401 73 118 6.0 15.0 0.53 0.56 0.56 90 1013.8
20260905022942 74 60 4.0 14.0 0.30 0.32 0.38 91 1014.2
20260905022903 74 33 4.0 14.0 0.30 0.32 0.38 91 1014.2
20260905022441 74 87 2.0 8.0 0.16 0.16 0.16 90 1016.1
20260905022358 74 62 2.0 8.0 0.16 0.16 0.16 90 1016.1
20260905022123 75 18 1.0 4.0 0.09 0.10 0.10 90 1016.6
20260905022006 75 354 1.0 4.0 0.09 0.10 0.10 90 1016.6
20260905021438 75 295 0.0 3.0 0.06 0.06 0.06 88 1016.4
20260905021355 75 333 0.0 3.0 0.06 0.06 0.06 88 1016.4
20260905020938 76 261 2.0 11.0 0.05 0.05 0.05 87 1015.8
20260905020853 76 289 2.0 11.0 0.05 0.05 0.05 87 1015.8
20260905020435 76 298 5.0 13.0 0.05 0.05 0.05 86 1015.1
20260905020351 76 100 5.0 13.0 0.05 0.05 0.05 86 1015.1
20260905015932 76 0 6.0 18.0 0.05 0.05 0.05 84 1014.9
20260905015850 76 100 6.0 18.0 0.05 0.05 0.05 84 1014.9
20260905015430 77 96 5.0 18.0 0.05 0.05 0.05 83 1014.5
20260905015346 77 105 6.0 18.0 0.05 0.05 0.05 82 1014.4
20260905015113 78 72 5.0 13.0 0.04 0.04 0.04 80 1013.8
20260905014959 78 101 5.0 18.0 0.04 0.04 0.04 80 1014.0
20260905014428 78 109 7.0 19.0 0.04 0.04 0.04 79 1013.7
20260905014346 79 80 7.0 19.0 0.04 0.04 0.04 78 1013.7
20260905013926 79 95 8.0 19.0 0.04 0.04 0.04 77 1013.9
20260905013847 79 96 7.0 19.0 0.04 0.04 0.04 77 1013.8
20260905013826 81 42 8.0 19.0 0.03 0.03 0.03 76 1014.3
20260905013454 80 101 8.0 19.0 0.03 0.03 0.03 77 1014.2
20260905013104 82 96 7.0 19.0 0.03 0.03 0.03 75 1014.4
20260905012951 82 85 6.0 19.0 0.03 0.03 0.03 76 1014.5
20260905012417 83 58 7.0 16.0 0.00 0.00 0.00 75 1014.5
20260905012334 83 53 7.0 16.0 0.00 0.00 0.00 75 1014.3
20260905011911 85 97 6.0 16.0 0.00 0.00 0.00 74 1014.3
20260905011832 85 125 6.0 16.0 0.00 0.00 0.00 73 1014.2
20260905011405 86 52 2.0 6.0 0.00 0.00 0.00 77 1013.5
20260905011347 86 82 2.0 5.0 0.00 0.00 0.00 77 1013.5
20260905010859 86 98 1.0 3.0 0.00 0.00 0.00 76 1013.0
20260905010830 86 101 1.0 3.0 0.00 0.00 0.00 76 1012.9
20260905010357 86 96 1.0 3.0 0.00 0.00 0.00 76 1012.8
20260905010330 86 132 1.0 3.0 0.00 0.00 0.00 76 1012.7
20260905005856 85 193 2.0 4.0 0.00 0.00 0.00 76 1012.7
20260905005823 85 173 2.0 4.0 0.00 0.00 0.00 76 1012.7
20260905005354 85 199 1.0 4.0 0.00 0.00 0.00 76 1012.6
20260905005321 85 163 1.0 4.0 0.00 0.00 0.00 76 1012.6
20260905005307 85 160 1.0 3.0 0.00 0.00 0.00 76 1012.4
20260905004929 85 163 1.0 3.0 0.00 0.00 0.00 76 1012.5
20260905004351 85 0 1.0 3.0 0.00 0.00 0.00 77 1012.1
20260905004318 85 111 1.0 3.0 0.00 0.00 0.00 77 1012.1
20260905003853 85 197 1.0 3.0 0.00 0.00 0.00 77 1011.8
20260905003818 85 318 1.0 3.0 0.00 0.00 0.00 77 1011.8
20260905003347 85 194 1.0 3.0 0.00 0.00 0.00 78 1011.6
20260905003314 85 184 1.0 3.0 0.00 0.00 0.00 78 1011.6
20260905002846 85 172 0.0 3.0 0.00 0.00 0.00 78 1011.6
20260905002813 85 188 0.0 3.0 0.00 0.00 0.00 78 1011.6
20260905002343 85 0 0.0 3.0 0.00 0.00 0.00 78 1011.7
20260905002311 85 0 0.0 3.0 0.00 0.00 0.00 78 1011.7
20260905001845 85 282 1.0 3.0 0.00 0.00 0.00 78 1011.7
20260905001811 85 211 1.0 3.0 0.00 0.00 0.00 78 1011.7
20260905001342 85 0 1.0 3.0 0.00 0.00 0.00 78 1011.7
20260905001308 85 202 1.0 3.0 0.00 0.00 0.00 78 1011.7
20260905000841 85 156 1.0 3.0 0.00 0.00 0.00 79 1011.7
20260905000808 85 205 1.0 3.0 0.00 0.00 0.00 79 1011.7
20260905000535 85 0 0.0 2.0 0.00 0.00 0.00 79 1011.6
20260905000429 85 162 0.0 2.0 0.00 0.00 0.00 79 1011.6
20260904235837 85 170 0.0 1.0 0.00 0.00 0.00 79 1011.6
20260904235807 85 0 0.0 1.0 0.00 0.00 0.00 79 1011.6
20260904235523 86 0 0.0 1.0 0.00 0.00 0.00 77 1011.7
20260904235410 86 0 0.0 1.0 0.00 0.00 0.00 77 1011.7
20260904235029 86 0 0.0 1.0 0.00 0.00 0.00 77 1011.7
20260904234913 86 0 0.0 1.0 0.00 0.00 0.00 77 1011.7
20260904234519 86 0 0.0 1.0 0.00 0.00 0.00 76 1011.8
20260904234411 86 0 0.0 1.0 0.00 0.00 0.00 76 1011.8
20260904233830 87 0 0.0 2.0 0.00 0.00 0.00 75 1011.8
20260904233757 87 0 0.0 2.0 0.00 0.00 0.00 75 1011.8
20260904233330 87 0 0.0 2.0 0.00 0.00 0.00 74 1011.8
20260904233256 87 0 0.0 2.0 0.00 0.00 0.00 74 1011.8
20260904232827 88 224 0.0 2.0 0.00 0.00 0.00 74 1011.7
20260904232757 88 0 0.0 2.0 0.00 0.00 0.00 74 1011.7
20260904232525 88 0 0.0 2.0 0.00 0.00 0.00 73 1011.7
20260904232405 88 0 0.0 2.0 0.00 0.00 0.00 73 1011.7
20260904231828 88 0 0.0 5.0 0.00 0.00 0.00 72 1011.7
20260904231754 88 0 1.0 5.0 0.00 0.00 0.00 72 1011.7
20260904231322 88 0 2.0 5.0 0.00 0.00 0.00 72 1011.4
20260904231254 88 242 2.0 5.0 0.00 0.00 0.00 72 1011.4
20260904230822 88 199 2.0 5.0 0.00 0.00 0.00 71 1011.4
20260904230752 88 152 2.0 5.0 0.00 0.00 0.00 71 1011.4
20260904230517 89 188 1.0 4.0 0.00 0.00 0.00 71 1011.7
20260904230359 89 221 1.0 4.0 0.00 0.00 0.00 71 1011.6
20260904225818 89 202 1.0 3.0 0.00 0.00 0.00 71 1011.7
20260904225750 89 199 1.0 3.0 0.00 0.00 0.00 71 1011.6
20260904225316 89 0 1.0 3.0 0.00 0.00 0.00 71 1011.5
20260904225251 89 243 1.0 3.0 0.00 0.00 0.00 71 1011.5
20260904225013 89 161 0.0 2.0 0.00 0.00 0.00 71 1011.5
20260904224901 89 251 0.0 2.0 0.00 0.00 0.00 71 1011.5
20260904224313 89 0 0.0 2.0 0.00 0.00 0.00 71 1011.5
20260904224249 89 0 0.0 2.0 0.00 0.00 0.00 71 1011.4
20260904223811 90 0 0.0 2.0 0.00 0.00 0.00 70 1011.5
20260904223749 90 0 0.0 2.0 0.00 0.00 0.00 70 1011.5
20260904223309 90 0 1.0 2.0 0.00 0.00 0.00 69 1011.5
20260904223246 90 252 1.0 2.0 0.00 0.00 0.00 69 1011.4
20260904222809 90 0 1.0 2.0 0.00 0.00 0.00 70 1011.4
20260904222745 90 180 1.0 2.0 0.00 0.00 0.00 70 1011.3
20260904222309 91 172 0.0 2.0 0.00 0.00 0.00 69 1011.4
20260904222242 91 34 0.0 2.0 0.00 0.00 0.00 69 1011.4
20260904221806 91 0 0.0 2.0 0.00 0.00 0.00 68 1011.5
20260904221742 91 0 0.0 2.0 0.00 0.00 0.00 68 1011.5
20260904221305 91 0 1.0 3.0 0.00 0.00 0.00 67 1011.6
20260904221238 92 249 1.0 3.0 0.00 0.00 0.00 67 1011.6
20260904220802 92 241 1.0 4.0 0.00 0.00 0.00 67 1011.7
20260904220737 92 0 1.0 4.0 0.00 0.00 0.00 67 1011.7
20260904220301 92 256 1.0 4.0 0.00 0.00 0.00 66 1011.7
20260904220231 93 0 1.0 4.0 0.00 0.00 0.00 65 1011.8
20260904215759 93 0 1.0 4.0 0.00 0.00 0.00 65 1011.9
20260904215727 93 234 1.0 4.0 0.00 0.00 0.00 65 1011.9
20260904215257 93 35 1.0 4.0 0.00 0.00 0.00 64 1012.0
20260904215221 93 339 1.0 4.0 0.00 0.00 0.00 63 1012.0
20260904214755 94 0 1.0 4.0 0.00 0.00 0.00 62 1011.9
20260904214717 94 12 1.0 4.0 0.00 0.00 0.00 62 1011.9
20260904214253 94 0 2.0 9.0 0.00 0.00 0.00 62 1011.7
20260904214220 94 171 2.0 9.0 0.00 0.00 0.00 62 1011.7
20260904213753 94 170 3.0 9.0 0.00 0.00 0.00 62 1011.5
20260904213714 94 176 3.0 9.0 0.00 0.00 0.00 62 1011.5
20260904213251 94 178 2.0 5.0 0.00 0.00 0.00 62 1011.5
20260904213213 94 47 2.0 5.0 0.00 0.00 0.00 62 1011.5
20260904212750 95 209 2.0 5.0 0.00 0.00 0.00 61 1011.6
20260904212711 95 184 2.0 5.0 0.00 0.00 0.00 61 1011.6
20260904212436 95 111 2.0 4.0 0.00 0.00 0.00 60 1011.6
20260904212323 95 251 2.0 4.0 0.00 0.00 0.00 60 1011.6
20260904211749 95 175 2.0 4.0 0.00 0.00 0.00 59 1011.6
20260904211708 95 144 2.0 4.0 0.00 0.00 0.00 59 1011.6
20260904211432 95 133 2.0 5.0 0.00 0.00 0.00 59 1011.5
20260904211320 95 159 2.0 5.0 0.00 0.00 0.00 59 1011.5
20260904210947 95 208 2.0 5.0 0.00 0.00 0.00 60 1011.5
20260904210831 95 82 2.0 5.0 0.00 0.00 0.00 60 1011.5
20260904210246 95 310 2.0 7.0 0.00 0.00 0.00 60 1011.4
20260904210204 95 338 2.0 7.0 0.00 0.00 0.00 60 1011.4
20260904205746 95 176 3.0 7.0 0.00 0.00 0.00 60 1011.3
20260904205702 95 180 3.0 7.0 0.00 0.00 0.00 60 1011.3
20260904205428 96 199 3.0 7.0 0.00 0.00 0.00 59 1011.2
20260904205311 96 0 3.0 7.0 0.00 0.00 0.00 59 1011.2
20260904204924 96 164 2.0 7.0 0.00 0.00 0.00 59 1011.3
20260904204812 96 175 2.0 7.0 0.00 0.00 0.00 59 1011.3
20260904204241 97 6 1.0 5.0 0.00 0.00 0.00 58 1011.4
20260904204158 97 147 1.0 5.0 0.00 0.00 0.00 58 1011.4
20260904203739 96 0 1.0 5.0 0.00 0.00 0.00 57 1011.4
20260904203657 96 237 2.0 5.0 0.00 0.00 0.00 57 1011.4
20260904203238 96 172 2.0 5.0 0.00 0.00 0.00 60 1011.5
20260904203156 96 144 2.0 5.0 0.00 0.00 0.00 59 1011.6
20260904202738 96 268 2.0 5.0 0.00 0.00 0.00 60 1011.6
20260904202654 96 0 2.0 5.0 0.00 0.00 0.00 58 1011.6
20260904202237 96 228 2.0 5.0 0.00 0.00 0.00 59 1011.7
20260904202151 96 158 2.0 5.0 0.00 0.00 0.00 60 1011.8
20260904201732 96 164 2.0 7.0 0.00 0.00 0.00 58 1011.9
20260904201648 96 250 2.0 7.0 0.00 0.00 0.00 57 1011.9
20260904201231 96 184 2.0 7.0 0.00 0.00 0.00 58 1012.0
20260904201148 96 349 2.0 7.0 0.00 0.00 0.00 58 1012.0
20260904200909 96 242 2.0 6.0 0.00 0.00 0.00 60 1012.1
20260904200759 96 192 2.0 6.0 0.00 0.00 0.00 59 1012.0
20260904200417 97 124 2.0 5.0 0.00 0.00 0.00 58 1012.1
20260904200253 97 180 2.0 5.0 0.00 0.00 0.00 57 1012.1
20260904195728 96 223 1.0 5.0 0.00 0.00 0.00 58 1012.3
20260904195644 96 308 2.0 5.0 0.00 0.00 0.00 59 1012.3
20260904195237 96 78 2.0 4.0 0.00 0.00 0.00 59 1012.4
20260904195138 96 221 2.0 5.0 0.00 0.00 0.00 58 1012.4
20260904194724 96 143 2.0 6.0 0.00 0.00 0.00 60 1012.5
20260904194636 96 221 2.0 6.0 0.00 0.00 0.00 59 1012.4
20260904194222 96 33 2.0 6.0 0.00 0.00 0.00 58 1012.5
20260904194135 96 190 2.0 6.0 0.00 0.00 0.00 59 1012.5
20260904193720 97 193 2.0 5.0 0.00 0.00 0.00 58 1012.5
20260904193634 97 154 2.0 5.0 0.00 0.00 0.00 58 1012.5
20260904193341 97 359 1.0 5.0 0.00 0.00 0.00 60 1012.7
20260904193236 97 158 2.0 5.0 0.00 0.00 0.00 60 1012.6
20260904193227 97 332 2.0 5.0 0.00 0.00 0.00 60 1012.6
20260904192744 97 249 1.0 5.0 0.00 0.00 0.00 57 1012.7
20260904192214 97 176 1.0 3.0 0.00 0.00 0.00 58 1012.8
20260904192130 97 252 1.0 4.0 0.00 0.00 0.00 59 1012.8
20260904192111 96 26 2.0 6.0 0.00 0.00 0.00 60 1012.9
20260904191737 96 18 2.0 5.0 0.00 0.00 0.00 60 1012.9
20260904191210 96 174 2.0 6.0 0.00 0.00 0.00 60 1012.9
20260904191126 96 232 2.0 6.0 0.00 0.00 0.00 60 1012.9
20260904190847 96 196 2.0 6.0 0.00 0.00 0.00 61 1013.0
20260904190732 96 188 2.0 6.0 0.00 0.00 0.00 60 1013.0
20260904190211 96 153 2.0 6.0 0.00 0.00 0.00 64 1013.1
20260904190124 96 293 2.0 6.0 0.00 0.00 0.00 61 1013.1
20260904185709 96 152 2.0 4.0 0.00 0.00 0.00 64 1013.2
20260904185620 96 163 2.0 4.0 0.00 0.00 0.00 64 1013.2
20260904185346 96 107 2.0 6.0 0.00 0.00 0.00 62 1013.2
20260904185232 96 351 2.0 5.0 0.00 0.00 0.00 61 1013.2
20260904185111 95 0 3.0 7.0 0.00 0.00 0.00 62 1013.2
20260904184730 95 268 2.0 7.0 0.00 0.00 0.00 64 1013.2
20260904184202 95 253 3.0 7.0 0.00 0.00 0.00 63 1013.2
20260904184116 95 213 3.0 7.0 0.00 0.00 0.00 63 1013.2
20260904183702 95 187 3.0 7.0 0.00 0.00 0.00 63 1013.4
20260904183614 95 192 3.0 7.0 0.00 0.00 0.00 61 1013.4
20260904183200 96 172 2.0 7.0 0.00 0.00 0.00 62 1013.5
20260904183113 96 147 2.0 7.0 0.00 0.00 0.00 62 1013.5
20260904182658 96 155 2.0 6.0 0.00 0.00 0.00 62 1013.5
20260904182612 96 322 2.0 5.0 0.00 0.00 0.00 62 1013.6
20260904182157 96 259 2.0 5.0 0.00 0.00 0.00 60 1013.6
20260904182109 96 169 2.0 5.0 0.00 0.00 0.00 61 1013.6
20260904181656 96 67 1.0 4.0 0.00 0.00 0.00 62 1013.7
20260904181610 96 33 1.0 4.0 0.00 0.00 0.00 62 1013.7
20260904181336 95 46 2.0 6.0 0.00 0.00 0.00 66 1013.7
20260904181220 95 135 2.0 6.0 0.00 0.00 0.00 66 1013.7
20260904180652 95 162 3.0 8.0 0.00 0.00 0.00 64 1013.7
20260904180606 95 169 3.0 8.0 0.00 0.00 0.00 64 1013.7
20260904180151 95 80 3.0 8.0 0.00 0.00 0.00 64 1013.8
20260904180117 95 170 3.0 8.0 0.00 0.00 0.00 64 1013.8
20260904175834 95 147 2.0 7.0 0.00 0.00 0.00 63 1013.8
20260904175715 95 209 2.0 7.0 0.00 0.00 0.00 63 1013.8
20260904175150 95 352 2.0 5.0 0.00 0.00 0.00 64 1013.9
20260904175101 95 166 2.0 5.0 0.00 0.00 0.00 64 1013.9
20260904174647 95 158 2.0 6.0 0.00 0.00 0.00 65 1013.9
20260904174600 95 141 2.0 6.0 0.00 0.00 0.00 65 1013.9
20260904174146 95 275 2.0 6.0 0.00 0.00 0.00 65 1013.9
20260904174059 95 173 2.0 6.0 0.00 0.00 0.00 63 1014.0
20260904173642 94 230 1.0 5.0 0.00 0.00 0.00 65 1014.0
20260904173556 94 316 1.0 9.0 0.00 0.00 0.00 64 1014.1
20260904173143 94 251 2.0 9.0 0.00 0.00 0.00 64 1014.1
20260904173056 94 145 2.0 9.0 0.00 0.00 0.00 65 1014.1
20260904172641 93 205 3.0 9.0 0.00 0.00 0.00 66 1014.1
20260904172549 93 164 3.0 9.0 0.00 0.00 0.00 67 1014.1
20260904172140 93 185 4.0 10.0 0.00 0.00 0.00 65 1014.2
20260904172044 93 173 4.0 10.0 0.00 0.00 0.00 66 1014.2
20260904171802 94 178 3.0 10.0 0.00 0.00 0.00 65 1014.2
20260904171656 94 189 3.0 10.0 0.00 0.00 0.00 65 1014.2
20260904171134 95 180 2.0 10.0 0.00 0.00 0.00 64 1014.2
20260904171039 95 0 2.0 4.0 0.00 0.00 0.00 64 1014.2
20260904170636 94 151 2.0 8.0 0.00 0.00 0.00 65 1014.3
20260904170536 94 229 2.0 8.0 0.00 0.00 0.00 64 1014.2
20260904170131 94 308 2.0 8.0 0.00 0.00 0.00 65 1014.3
20260904170030 94 334 2.0 8.0 0.00 0.00 0.00 63 1014.3
20260904165749 94 238 2.0 5.0 0.00 0.00 0.00 63 1014.4
20260904165639 94 165 2.0 5.0 0.00 0.00 0.00 64 1014.4
20260904165128 94 7 2.0 5.0 0.00 0.00 0.00 62 1014.4
20260904165025 94 213 2.0 5.0 0.00 0.00 0.00 64 1014.5
20260904164628 94 242 2.0 7.0 0.00 0.00 0.00 64 1014.5
20260904164527 94 233 2.0 7.0 0.00 0.00 0.00 65 1014.5
20260904164242 94 78 2.0 7.0 0.00 0.00 0.00 63 1014.6
20260904164138 94 0 2.0 7.0 0.00 0.00 0.00 63 1014.6
20260904163626 94 290 1.0 3.0 0.00 0.00 0.00 63 1014.7
20260904163523 94 305 1.0 3.0 0.00 0.00 0.00 63 1014.7
20260904163125 94 79 1.0 6.0 0.00 0.00 0.00 65 1014.7
20260904163019 94 153 2.0 6.0 0.00 0.00 0.00 64 1014.7
20260904162622 93 46 2.0 6.0 0.00 0.00 0.00 65 1014.8
20260904162521 93 346 1.0 6.0 0.00 0.00 0.00 64 1014.8
20260904162122 93 203 1.0 6.0 0.00 0.00 0.00 64 1014.8
20260904162016 93 194 1.0 5.0 0.00 0.00 0.00 65 1014.9
20260904161620 92 336 2.0 5.0 0.00 0.00 0.00 67 1014.9
20260904161515 93 0 2.0 5.0 0.00 0.00 0.00 66 1014.9
20260904161118 93 171 2.0 5.0 0.00 0.00 0.00 65 1014.9
20260904161015 93 170 2.0 5.0 0.00 0.00 0.00 65 1014.9
20260904160617 93 66 2.0 5.0 0.00 0.00 0.00 66 1014.9
20260904160511 93 281 2.0 5.0 0.00 0.00 0.00 65 1014.9
20260904160115 92 321 2.0 7.0 0.00 0.00 0.00 67 1014.9
20260904160013 92 156 2.0 7.0 0.00 0.00 0.00 68 1014.9
20260904155615 92 218 2.0 7.0 0.00 0.00 0.00 68 1014.9
20260904155509 92 230 2.0 7.0 0.00 0.00 0.00 68 1014.9
20260904155112 92 160 2.0 7.0 0.00 0.00 0.00 66 1015.0
20260904155009 92 207 2.0 6.0 0.00 0.00 0.00 66 1015.0
20260904154721 92 238 2.0 6.0 0.00 0.00 0.00 66 1015.0
20260904154620 92 41 2.0 6.0 0.00 0.00 0.00 67 1015.0
20260904154447 92 321 1.0 5.0 0.00 0.00 0.00 67 1015.0
20260904154115 92 219 1.0 5.0 0.00 0.00 0.00 66 1015.0
20260904153611 92 325 1.0 5.0 0.00 0.00 0.00 66 1015.0
20260904153458 92 341 1.0 5.0 0.00 0.00 0.00 69 1015.0
20260904153110 91 0 2.0 5.0 0.00 0.00 0.00 68 1015.0
20260904152957 91 349 2.0 5.0 0.00 0.00 0.00 68 1015.0
20260904152714 91 234 2.0 5.0 0.00 0.00 0.00 69 1015.1
20260904152611 91 165 2.0 5.0 0.00 0.00 0.00 67 1015.1
20260904152108 91 253 2.0 5.0 0.00 0.00 0.00 69 1015.1
20260904151954 92 239 1.0 5.0 0.00 0.00 0.00 68 1015.1
20260904151607 91 173 1.0 4.0 0.00 0.00 0.00 68 1015.1
20260904151455 91 120 1.0 4.0 0.00 0.00 0.00 67 1015.2
20260904151107 91 286 1.0 3.0 0.00 0.00 0.00 67 1015.2
20260904150952 91 172 1.0 3.0 0.00 0.00 0.00 69 1015.2
20260904150603 90 182 1.0 4.0 0.00 0.00 0.00 69 1015.2
20260904150450 90 203 2.0 4.0 0.00 0.00 0.00 69 1015.1
20260904145948 90 121 1.0 4.0 0.00 0.00 0.00 70 1015.1
20260904145601 90 119 2.0 5.0 0.00 0.00 0.00 70 1015.0
20260904145447 90 266 2.0 5.0 0.00 0.00 0.00 70 1015.0
20260904145100 89 329 2.0 6.0 0.00 0.00 0.00 70 1015.0
20260904144947 89 83 2.0 6.0 0.00 0.00 0.00 71 1015.0
20260904144558 89 22 2.0 6.0 0.00 0.00 0.00 72 1015.0
20260904144446 89 178 2.0 6.0 0.00 0.00 0.00 72 1015.0
20260904144057 89 148 2.0 5.0 0.00 0.00 0.00 72 1015.0
20260904143942 89 153 1.0 5.0 0.00 0.00 0.00 73 1015.1
20260904143555 89 82 1.0 5.0 0.00 0.00 0.00 72 1015.1
20260904143441 89 152 1.0 5.0 0.00 0.00 0.00 72 1015.1
20260904143051 88 0 2.0 7.0 0.00 0.00 0.00 73 1015.1
20260904142943 88 137 2.0 7.0 0.00 0.00 0.00 73 1015.1
20260904142551 89 200 2.0 7.0 0.00 0.00 0.00 73 1015.1
20260904142444 89 304 2.0 7.0 0.00 0.00 0.00 72 1015.1
20260904142047 89 336 2.0 5.0 0.00 0.00 0.00 72 1015.1
20260904141939 89 184 2.0 5.0 0.00 0.00 0.00 71 1015.1
20260904141544 89 185 1.0 4.0 0.00 0.00 0.00 71 1015.2
20260904141442 89 124 1.0 4.0 0.00 0.00 0.00 73 1015.2
20260904141201 88 144 1.0 4.0 0.00 0.00 0.00 73 1015.3
20260904141053 88 357 1.0 4.0 0.00 0.00 0.00 72 1015.3
20260904140540 88 275 1.0 4.0 0.00 0.00 0.00 74 1015.3
20260904140437 88 39 1.0 4.0 0.00 0.00 0.00 74 1015.3
20260904140158 87 248 2.0 5.0 0.00 0.00 0.00 76 1015.2
20260904140048 87 255 1.0 5.0 0.00 0.00 0.00 76 1015.3
20260904135538 87 78 2.0 5.0 0.00 0.00 0.00 75 1015.2
20260904135433 87 272 2.0 5.0 0.00 0.00 0.00 76 1015.2
20260904135036 87 336 2.0 4.0 0.00 0.00 0.00 76 1015.2
20260904134932 87 229 2.0 4.0 0.00 0.00 0.00 76 1015.2
20260904134534 87 155 1.0 4.0 0.00 0.00 0.00 76 1015.2
20260904134430 87 280 1.0 4.0 0.00 0.00 0.00 76 1015.2
20260904134033 87 307 1.0 4.0 0.00 0.00 0.00 76 1015.2
20260904133928 87 166 1.0 4.0 0.00 0.00 0.00 76 1015.2
20260904133531 87 298 1.0 4.0 0.00 0.00 0.00 76 1015.2
20260904133426 87 0 1.0 4.0 0.00 0.00 0.00 76 1015.2
20260904133030 86 84 1.0 4.0 0.00 0.00 0.00 77 1015.2
20260904132926 86 274 1.0 4.0 0.00 0.00 0.00 77 1015.2
20260904132652 86 234 1.0 4.0 0.00 0.00 0.00 79 1015.2
20260904132538 86 0 1.0 4.0 0.00 0.00 0.00 78 1015.2
20260904132027 85 308 1.0 4.0 0.00 0.00 0.00 79 1015.3
20260904131922 85 255 1.0 4.0 0.00 0.00 0.00 79 1015.3
20260904131523 85 78 1.0 4.0 0.00 0.00 0.00 78 1015.3
20260904131420 85 42 1.0 4.0 0.00 0.00 0.00 79 1015.3
20260904131023 85 240 1.0 3.0 0.00 0.00 0.00 78 1015.3
20260904130920 85 269 1.0 3.0 0.00 0.00 0.00 78 1015.3
20260904130522 85 330 1.0 3.0 0.00 0.00 0.00 79 1015.3
20260904130421 84 147 1.0 3.0 0.00 0.00 0.00 79 1015.3
20260904130141 84 324 1.0 4.0 0.00 0.00 0.00 81 1015.3
20260904130036 84 354 1.0 4.0 0.00 0.00 0.00 80 1015.3
20260904125521 83 334 2.0 4.0 0.00 0.00 0.00 82 1015.3
20260904125420 83 92 2.0 4.0 0.00 0.00 0.00 83 1015.3
20260904125021 83 5 2.0 4.0 0.00 0.00 0.00 82 1015.3
20260904124920 83 262 2.0 4.0 0.00 0.00 0.00 82 1015.3
20260904124521 83 155 1.0 4.0 0.00 0.00 0.00 81 1015.3
20260904124423 83 116 1.0 4.0 0.00 0.00 0.00 82 1015.3
20260904124404 83 0 1.0 4.0 0.00 0.00 0.00 81 1015.3
20260904124034 83 227 0.0 3.0 0.00 0.00 0.00 81 1015.3
20260904123517 82 0 1.0 5.0 0.00 0.00 0.00 83 1015.3
20260904123416 82 209 1.0 5.0 0.00 0.00 0.00 83 1015.3
20260904123017 82 0 1.0 5.0 0.00 0.00 0.00 84 1015.2
20260904122917 82 348 1.0 5.0 0.00 0.00 0.00 85 1015.3
20260904122514 82 209 1.0 4.0 0.00 0.00 0.00 84 1015.3
20260904122416 82 0 1.0 4.0 0.00 0.00 0.00 84 1015.3
20260904122109 80 210 0.0 2.0 0.00 0.00 0.00 86 1015.2
20260904122017 81 0 1.0 4.0 0.00 0.00 0.00 84 1015.3
20260904122003 81 172 1.0 4.0 0.00 0.00 0.00 84 1015.3
20260904121524 81 0 0.0 2.0 0.00 0.00 0.00 85 1015.2
20260904121010 80 0 0.0 3.0 0.00 0.00 0.00 88 1015.2
20260904120908 80 351 0.0 3.0 0.00 0.00 0.00 88 1015.2
20260904120508 79 0 0.0 3.0 0.00 0.00 0.00 90 1015.2
20260904120408 79 0 0.0 3.0 0.00 0.00 0.00 91 1015.2
20260904120003 78 282 0.0 3.0 0.00 0.00 0.00 92 1015.2
20260904115905 78 0 0.0 3.0 0.00 0.00 0.00 92 1015.2
20260904115504 78 0 0.0 1.0 0.00 0.00 0.00 94 1015.2
20260904115404 78 0 0.0 1.0 0.00 0.00 0.00 94 1015.2
20260904115126 77 280 0.0 2.0 0.00 0.00 0.00 95 1015.2
20260904115014 77 231 0.0 2.0 0.00 0.00 0.00 95 1015.2
20260904114459 76 0 0.0 2.0 0.00 0.00 0.00 95 1015.2
20260904114404 76 229 0.0 2.0 0.00 0.00 0.00 96 1015.2
20260904113950 76 197 0.0 1.0 0.00 0.00 0.00 96 1015.2
20260904113902 76 0 0.0 1.0 0.00 0.00 0.00 96 1015.2
20260904113435 75 0 0.0 1.0 0.00 0.00 0.00 96 1015.2
20260904113354 75 0 0.0 1.0 0.00 0.00 0.00 96 1015.1
20260904112922 75 184 0.0 1.0 0.00 0.00 0.00 96 1015.1
20260904112837 75 0 0.0 1.0 0.00 0.00 0.00 96 1015.1
20260904112404 74 191 0.0 1.0 0.00 0.00 0.00 96 1015.2
20260904112323 74 0 0.0 1.0 0.00 0.00 0.00 96 1015.2
20260904111850 74 182 0.0 1.0 0.00 0.00 0.00 96 1015.1
20260904111811 74 268 0.0 1.0 0.00 0.00 0.00 96 1015.1
20260904111337 74 0 0.0 1.0 0.00 0.00 0.00 96 1015.1
20260904111251 74 0 0.0 1.0 0.00 0.00 0.00 96 1015.1
20260904110831 74 0 0.0 1.0 0.00 0.00 0.00 96 1015.1
20260904110750 74 148 0.0 1.0 0.00 0.00 0.00 96 1015.1
20260904110318 74 104 0.0 1.0 0.00 0.00 0.00 96 1015.1
20260904110220 74 0 0.0 1.0 0.00 0.00 0.00 96 1015.1
20260904105819 74 0 0.0 1.0 0.00 0.00 0.00 96 1015.1
20260904105707 74 0 0.0 1.0 0.00 0.00 0.00 96 1015.1
20260904105305 74 0 0.0 1.0 0.00 0.00 0.00 96 1015.1
20260904105203 74 0 0.0 1.0 0.00 0.00 0.00 96 1015.1
20260904104805 74 0 0.0 1.0 0.00 0.00 0.00 96 1015.1
20260904104703 74 0 0.0 1.0 0.00 0.00 0.00 96 1015.1
20260904104300 74 0 0.0 1.0 0.00 0.00 0.00 96 1015.0
20260904104204 74 0 0.0 1.0 0.00 0.00 0.00 96 1015.0
20260904103753 74 0 0.0 0.0 0.00 0.00 0.00 95 1015.0
20260904103706 74 0 0.0 0.0 0.00 0.00 0.00 95 1015.0
20260904103247 74 0 0.0 1.0 0.00 0.00 0.00 96 1015.0
20260904103152 74 0 0.0 1.0 0.00 0.00 0.00 95 1015.0
20260904102749 74 43 0.0 1.0 0.00 0.00 0.00 95 1015.0
20260904102638 74 290 0.0 1.0 0.00 0.00 0.00 95 1014.9
20260904102248 74 0 0.0 1.0 0.00 0.00 0.00 95 1014.9
20260904102126 74 0 0.0 1.0 0.00 0.00 0.00 95 1014.9
20260904101749 74 0 0.0 1.0 0.00 0.00 0.00 95 1014.9
20260904101609 74 0 0.0 1.0 0.00 0.00 0.00 95 1014.9
20260904101332 74 0 0.0 0.0 0.00 0.00 0.00 95 1014.9
20260904101235 74 0 0.0 0.0 0.00 0.00 0.00 95 1014.9
20260904100724 74 0 0.0 0.0 0.00 0.00 0.00 95 1014.9
20260904100553 74 0 0.0 1.0 0.00 0.00 0.00 95 1014.9
20260904100205 74 0 0.0 1.0 0.00 0.00 0.00 95 1014.9
20260904095702 74 0 0.0 1.0 0.00 0.00 0.00 95 1014.9
20260904095539 74 190 0.0 1.0 0.00 0.00 0.00 95 1014.9
20260904095152 74 0 0.0 0.0 0.00 0.00 0.00 95 1014.9
20260904095035 74 0 0.0 0.0 0.00 0.00 0.00 95 1014.9
20260904094638 74 0 0.0 0.0 0.00 0.00 0.00 95 1014.9
20260904094522 74 0 0.0 0.0 0.00 0.00 0.00 95 1014.9
20260904094139 74 0 0.0 0.0 0.00 0.00 0.00 95 1014.9
20260904094007 74 0 0.0 0.0 0.00 0.00 0.00 95 1014.9
20260904093633 74 0 0.0 0.0 0.00 0.00 0.00 95 1014.9
20260904093505 74 0 0.0 0.0 0.00 0.00 0.00 95 1014.9
20260904093121 74 0 0.0 1.0 0.00 0.00 0.00 95 1014.9
20260904092954 74 0 0.0 1.0 0.00 0.00 0.00 95 1014.9
20260904092618 74 0 0.0 1.0 0.00 0.00 0.00 95 1014.9
20260904092451 74 0 0.0 1.0 0.00 0.00 0.00 95 1014.8
20260904092118 74 191 0.0 1.0 0.00 0.00 0.00 95 1014.8
20260904091940 74 0 0.0 0.0 0.00 0.00 0.00 95 1014.8
20260904091618 74 0 0.0 0.0 0.00 0.00 0.00 95 1014.8
20260904091437 74 0 0.0 0.0 0.00 0.00 0.00 95 1014.8
20260904091104 74 0 0.0 0.0 0.00 0.00 0.00 95 1014.7
20260904090922 74 0 0.0 0.0 0.00 0.00 0.00 95 1014.7
20260904090602 74 0 0.0 1.0 0.00 0.00 0.00 95 1014.8
20260904090411 74 181 0.0 1.0 0.00 0.00 0.00 95 1014.8
20260904090052 74 0 0.0 1.0 0.00 0.00 0.00 95 1014.7
20260904085908 74 0 0.0 1.0 0.00 0.00 0.00 95 1014.7
20260904085538 74 0 0.0 0.0 0.00 0.00 0.00 95 1014.7
20260904085407 74 0 0.0 0.0 0.00 0.00 0.00 95 1014.7
20260904085024 74 0 0.0 0.0 0.00 0.00 0.00 94 1014.6
20260904084854 74 0 0.0 0.0 0.00 0.00 0.00 94 1014.6
20260904084508 74 0 0.0 0.0 0.00 0.00 0.00 94 1014.6
20260904084341 74 0 0.0 0.0 0.00 0.00 0.00 94 1014.6
20260904083951 75 0 0.0 0.0 0.00 0.00 0.00 94 1014.5
20260904083824 75 0 0.0 0.0 0.00 0.00 0.00 94 1014.5
20260904083438 75 0 0.0 0.0 0.00 0.00 0.00 94 1014.6
20260904083321 75 0 0.0 0.0 0.00 0.00 0.00 94 1014.6
20260904082921 75 0 0.0 0.0 0.00 0.00 0.00 94 1014.5
20260904082822 75 67 0.0 0.0 0.00 0.00 0.00 94 1014.5
20260904082526 75 0 0.0 1.0 0.00 0.00 0.00 94 1014.5
20260904082422 75 0 0.0 1.0 0.00 0.00 0.00 94 1014.5
20260904081908 75 0 0.0 1.0 0.00 0.00 0.00 94 1014.5
20260904081807 75 0 0.0 1.0 0.00 0.00 0.00 94 1014.5
20260904081404 75 0 0.0 0.0 0.00 0.00 0.00 94 1014.5
20260904081307 75 0 0.0 0.0 0.00 0.00 0.00 94 1014.5
20260904080855 75 0 0.0 2.0 0.00 0.00 0.00 94 1014.4
20260904080808 75 0 0.0 2.0 0.00 0.00 0.00 94 1014.4
20260904080742 75 0 1.0 2.0 0.00 0.00 0.00 94 1014.3
20260904080407 75 0 0.0 2.0 0.00 0.00 0.00 94 1014.4
20260904075822 75 0 1.0 2.0 0.00 0.00 0.00 94 1014.3
20260904075741 75 0 1.0 2.0 0.00 0.00 0.00 94 1014.3
20260904075308 75 140 0.0 2.0 0.00 0.00 0.00 94 1014.3
20260904075227 75 140 0.0 2.0 0.00 0.00 0.00 94 1014.3
20260904074804 75 199 0.0 2.0 0.00 0.00 0.00 94 1014.4
20260904074710 75 0 0.0 2.0 0.00 0.00 0.00 94 1014.4
20260904074253 75 0 0.0 0.0 0.00 0.00 0.00 94 1014.4
20260904074207 75 0 0.0 0.0 0.00 0.00 0.00 94 1014.4
20260904073742 75 0 0.0 0.0 0.00 0.00 0.00 94 1014.5
20260904073656 75 0 0.0 0.0 0.00 0.00 0.00 94 1014.4
20260904073224 75 0 0.0 0.0 0.00 0.00 0.00 94 1014.5
20260904073142 75 0 0.0 0.0 0.00 0.00 0.00 93 1014.5
20260904072851 75 0 0.0 0.0 0.00 0.00 0.00 93 1014.6
20260904072737 75 0 0.0 0.0 0.00 0.00 0.00 93 1014.5
20260904072206 75 0 0.0 0.0 0.00 0.00 0.00 93 1014.6
20260904072123 75 0 0.0 0.0 0.00 0.00 0.00 93 1014.6
20260904071705 75 0 0.0 0.0 0.00 0.00 0.00 93 1014.6
20260904071626 75 0 0.0 0.0 0.00 0.00 0.00 93 1014.6
20260904071153 75 0 0.0 0.0 0.00 0.00 0.00 93 1014.6
20260904071107 75 0 0.0 0.0 0.00 0.00 0.00 93 1014.6
20260904070838 75 0 0.0 0.0 0.00 0.00 0.00 93 1014.7
20260904070720 75 0 0.0 0.0 0.00 0.00 0.00 93 1014.7
20260904070115 75 0 0.0 1.0 0.00 0.00 0.00 93 1014.6
20260904065639 75 0 0.0 1.0 0.00 0.00 0.00 93 1014.7
20260904065609 75 0 0.0 1.0 0.00 0.00 0.00 93 1014.7
20260904065125 75 166 0.0 1.0 0.00 0.00 0.00 93 1014.7
20260904065112 75 0 0.0 0.0 0.00 0.00 0.00 93 1014.7
20260904064608 75 0 0.0 0.0 0.00 0.00 0.00 93 1014.7
20260904064107 75 0 0.0 1.0 0.00 0.00 0.00 92 1014.8
20260904064100 75 0 0.0 1.0 0.00 0.00 0.00 92 1014.8
20260904064033 75 0 0.0 1.0 0.00 0.00 0.00 92 1014.8
20260904063649 75 0 0.0 1.0 0.00 0.00 0.00 92 1014.8
20260904063106 76 0 0.0 0.0 0.00 0.00 0.00 92 1014.9
20260904063028 76 0 0.0 0.0 0.00 0.00 0.00 92 1014.9
20260904062752 76 0 0.0 0.0 0.00 0.00 0.00 92 1015.0
20260904062632 76 0 0.0 0.0 0.00 0.00 0.00 92 1015.0
20260904062025 76 0 0.0 0.0 0.00 0.00 0.00 92 1015.0
20260904061527 76 0 0.0 0.0 0.00 0.00 0.00 92 1015.1
20260904061012 76 0 0.0 0.0 0.00 0.00 0.00 92 1015.2
20260904060509 76 0 0.0 0.0 0.00 0.00 0.00 91 1015.3
20260904060013 76 0 0.0 1.0 0.00 0.00 0.00 91 1015.3
20260904055512 76 0 0.0 1.0 0.00 0.00 0.00 91 1015.5
20260904055009 76 0 0.0 1.0 0.00 0.00 0.00 91 1015.5
20260904054501 76 0 0.0 1.0 0.00 0.00 0.00 91 1015.5
20260904053942 76 0 0.0 1.0 0.00 0.00 0.00 90 1015.6
20260904053427 77 0 0.0 0.0 0.00 0.00 0.00 90 1015.6
20260904053409 77 0 0.0 0.0 0.00 0.00 0.00 89 1015.7
20260904053036 77 0 0.0 0.0 0.00 0.00 0.00 89 1015.7
20260904052411 77 0 0.0 0.0 0.00 0.00 0.00 89 1015.6
20260904051909 77 0 0.0 0.0 0.00 0.00 0.00 88 1015.6
20260904051617 77 0 0.0 0.0 0.00 0.00 0.00 88 1015.7
20260904051502 77 0 0.0 0.0 0.00 0.00 0.00 88 1015.7
20260904050844 78 0 0.0 1.0 0.00 0.00 0.00 88 1015.7
20260904050340 78 0 0.0 1.0 0.00 0.00 0.00 87 1015.7
20260904045830 78 0 0.0 1.0 0.00 0.00 0.00 87 1015.7
20260904045329 78 0 0.0 2.0 0.00 0.00 0.00 87 1015.7
20260904044827 78 0 0.0 2.0 0.00 0.00 0.00 86 1015.7
20260904044547 79 241 0.0 2.0 0.00 0.00 0.00 86 1015.7
20260904044431 79 241 0.0 2.0 0.00 0.00 0.00 86 1015.7
20260904044047 79 240 0.0 2.0 0.00 0.00 0.00 85 1015.7
20260904043930 79 240 0.0 2.0 0.00 0.00 0.00 85 1015.7
20260904043323 79 0 0.0 4.0 0.00 0.00 0.00 85 1015.6
20260904042820 79 0 1.0 4.0 0.00 0.00 0.00 84 1015.6
20260904042320 79 0 1.0 4.0 0.00 0.00 0.00 84 1015.6
20260904041819 80 15 1.0 4.0 0.00 0.00 0.00 83 1015.5
20260904041315 80 167 2.0 4.0 0.00 0.00 0.00 83 1015.5
20260904040815 80 0 2.0 4.0 0.00 0.00 0.00 83 1015.5
20260904040315 80 143 2.0 5.0 0.00 0.00 0.00 82 1015.4
20260904040034 80 219 2.0 5.0 0.00 0.00 0.00 82 1015.5
20260904035916 80 219 2.0 5.0 0.00 0.00 0.00 82 1015.5
20260904035311 80 183 2.0 5.0 0.00 0.00 0.00 82 1015.5
20260904035029 80 178 1.0 4.0 0.00 0.00 0.00 82 1015.5
20260904034916 80 178 1.0 4.0 0.00 0.00 0.00 82 1015.5
20260904034312 80 157 1.0 3.0 0.00 0.00 0.00 83 1015.7
20260904033812 80 145 1.0 4.0 0.00 0.00 0.00 83 1015.7
20260904033308 80 200 2.0 4.0 0.00 0.00 0.00 83 1015.8
20260904032806 80 191 2.0 3.0 0.00 0.00 0.00 84 1015.7
20260904032306 81 289 0.0 2.0 0.00 0.00 0.00 83 1015.7
20260904031811 81 0 0.0 2.0 0.00 0.00 0.00 84 1015.8
20260904031257 81 0 0.0 2.0 0.00 0.00 0.00 83 1015.8
20260904031016 81 0 1.0 4.0 0.00 0.00 0.00 82 1015.7
20260904030858 81 0 1.0 4.0 0.00 0.00 0.00 82 1015.7
20260904030253 81 0 1.0 5.0 0.00 0.00 0.00 82 1015.7
20260904025748 82 203 1.0 5.0 0.00 0.00 0.00 82 1015.8
20260904025516 82 163 1.0 5.0 0.00 0.00 0.00 82 1015.9
20260904025352 82 163 1.0 5.0 0.00 0.00 0.00 82 1015.9
20260904024745 82 143 1.0 3.0 0.00 0.00 0.00 82 1015.8